Regional Weather Roundup
Issued by NWS Green Bay, WI

Home | Current Version | Previous Version | Graphics & Text | Print | Product List | Glossary Off
Versions: 1 2 3 4 5 6 7 8 9 10 11 12 13 14 15 16 17 18 19 20 21 22 23 24 25 26 27 28 29 30 31 32 33 34 35 36 37 38 39 40 41 42 43 44 45 46 47 48 49 50

000
ASUS43 KGRB 271610
RWRGRB

NORTH-CENTRAL AND NORTHEAST WISCONSIN REGIONAL WEATHER ROUNDUP
NATIONAL WEATHER SERVICE GREEN BAY WI
1100 AM CDT WED AUG 27 2014

WIZ005-009-010>012-018-019-271700-
NORTH CENTRAL WISCONSIN

CITY           SKY/WX    TMP DP  RH WIND       PRES   REMARKS
IRONWOOD       NOT AVBL
MANITOWISH WTR MOSUNNY   60  49  65 N5        30.22F
ARBOR VITAE    MOSUNNY   62  49  63 N3        30.22S
EAGLE RIVER    PTSUNNY   59  48  67 CALM      30.22S
LAND O LAKES   CLOUDY    60  49  65 W5        30.23S
RHINELANDER    MOSUNNY   62  51  67 CALM      30.23R
PHILLIPS       MOSUNNY   61  50  65 NE5       30.23S
ANTIGO         MOSUNNY   64  53  66 NW3       30.21S
TOMAHAWK       MOSUNNY   62  50  66 W6        30.23R
MERRILL        MOSUNNY   63  53  69 NW6       30.21S
$$

WIZ013-073-271700-
NORTHEAST WISCONSIN

CITY           SKY/WX    TMP DP  RH WIND       PRES   REMARKS
IRON MOUNTAIN  CLOUDY    63  50  62 NW7       30.19S
MARINETTE      PTSUNNY   64  52  63 N6        30.18F
OCONTO         MOSUNNY   67  53  59 MISG      30.19S
$$

WIZ017-030-035>037-045-271700-
CENTRAL WISCONSIN

CITY           SKY/WX    TMP DP  RH WIND       PRES   REMARKS
MEDFORD        SUNNY     63  48  59 N3        30.23R
WAUSAU           N/A     68  53  58 NW5       30.20R
MOSINEE        CLOUDY    66  54  63 CALM      30.23R
MARSHFIELD     SUNNY     68  53  58 VRB3      30.22R
WISC RAPIDS    PTSUNNY   70  54  56 NW7       30.22S
STEVENS POINT  MOSUNNY   66  51  57 NW6       30.22S
WAUPACA        MOSUNNY   71  54  55 CALM      30.21S
SHAWANO        MOSUNNY   68  55  62 CALM      30.20S
CLINTONVILLE   SUNNY     68  52  56 SW5       30.20S
$$

WIZ038-039-048-051-271700-
FOX VALLEY

CITY           SKY/WX    TMP DP  RH WIND       PRES   REMARKS
NWS GREEN BAY  SUNNY     69  54  58 CALM      30.20R
APPLETON       MOSUNNY   68  52  56 CALM      30.21S
OSHKOSH        SUNNY     69  56  62 E6        30.20S
FOND DU LAC    SUNNY     70  59  68 N8        30.20S
$$

WIZ022-050-052-271700-
EAST CENTRAL WISCONSIN

CITY           SKY/WX    TMP DP  RH WIND       PRES   REMARKS
STURGEON BAY   PTSUNNY   66  55  68 N8        30.20F
MANITOWOC      PTSUNNY   68  59  73 SE6       30.20S
SHEBOYGAN      SUNNY     70  58  65 NE7       30.19S
$$

LMZ563-521-522-541>543-271700-
LAKESHORE

STATION/POSITION TIME  TEMP    WIND        PRES    VSBY  WAVE
                       AIR SEA DIR/SP/G                  HT/PER
                 (UTC) (F)     (DEG/KT/KT) (MB)    (MI)  (FT/S)
SHEBOYGAN LKSHOR 1600   65 66   30/  8/  9 1022.5F
KEWAUNEE LKSHORE 1600   67     120/  5/  6 1021.7R
TWO RIVERS CG    1500                      1022.6      6   1
NORTHPORT PIER   1600   63     320/  5/  7 1022.7S
N MID LAKE BUOY  1600   60 65  340/  6/  8 1022.6R         1
S GREEN BAY BUOY 1600   64     VRB  2      1023.3F
SISTER BAY LKSHO 1500   67     360/  7/  9   N/A
STURGEON BAY CG  1500   65 66   90/  4     1022.6   3 1/2
CHAMBERS ISLAND  1600   68     350/  3/  4 1023.0S
MENOMINEE LKSHOR 1600   64      60/  6/  7 1023.0F
$$


USA.gov is the U.S. government's official web portal to all federal, state and local government web resources and services.